User: anonymous   Login
Location: unspecified
(0.0000°N, 0.0000°E)
Time: 07:38:50
(UTC+01:00)
Language:

SL-16 R/B - Orbit

View from above orbital plane
View from above orbital plane
View from above satellite
View from above satellite

Ground track
Ground track

The orbit data is extracted from the following two-line orbital elements,

1 27006U 01056F   22028.41753844 -.00000038  00000-0  82045-5 0  9993
2 27006  99.5520 164.8467 0013898 252.9972 175.4321 13.70971901  7477
Epoch (UTC): 28 January 2022 10:01:15
Eccentricity: 0.0013898
inclination: 99.5520°
perigee height: 986 km
apogee height: 1006 km
right ascension of ascending node: 164.8467°
argument of perigee: 252.9972°
revolutions per day: 13.70971901
mean anomaly at epoch: 175.4321°
orbit number at epoch: 747

The dashed part of the orbit path shows where the satellite is in the earth's shadow,  

DLR